Погода в Тишанке

Россия / Белгородская область     50°23′22″N   37°31′09″E
темп.,
°C
ветер,
м/с
пор.,
м/с
влажн.,
%
обл.,
%
осадки,
мм/ч
давл.,
гПа
погр.,
м
10 августа, ср
ср1000:00+21ссв366142 0.0 1017111
03:00+20ссв346275 0.0 101658
06:00+20ссв3459100 0.0 101792
09:00+23св3455100 0.0 1017245
12:00+28всв3438100 0.0 1016665
15:00+31в4528100 0.0 10142130
18:00+28ссв4844100 0.0 1014323
21:00+25св41046100 0.0 1014216
11 августа, чт
чт1100:00+24в3745100 0.0 1015175
03:00+23св5114893 0.0 1014242
06:00+21всв71267100 0.0 1015286
09:00+23св6959100 0.0 1015269
12:00+28всв584295 0.0 1016924
15:00+31св583390 0.0 10141404
18:00+29св4840100 0.0 1014298
21:00+27св71640100 0.0 1015626
12 августа, пт
пт1200:00+26в61438100 0.0 1016416
03:00+24св61253100 0.0 1016277
06:00+22всв51360100 0.0 1017435
09:00+24всв71358100 0.0 1017529
12:00+29в7840100 0.0 10181089
15:00+31в6834100 0.0 10171557
18:00+27юв3648100 0.0 1018149
21:00+25св3545100 0.0 101998
13 августа, сб
сб1300:00+24св81455100 0.0 1018440
03:00+24всв61354100 0.0 1018463
06:00+24всв71455100 0.0 1018535
09:00+25в8155568 0.0 1018715
12:00+31в8103883 0.0 10171162
15:00+34в78285 0.0 10162498
18:00+31всв7113440 0.0 1015778
21:00+27св8154247 0.0 1016528
14 августа, вс
вс1400:00+25всв6154492 0.0 1016421
03:00+25в61442100 0.0 1015440
06:00+25вюв7144275 0.0 1015405
09:00+28вюв7113775 0.0 1016554
12:00+32вюв7829100 0.0 10151153
15:00+35в782327 0.0 10142658
18:00+30всв9133257 0.0 1014582
21:00+26в51040100 0.6 1015317